Back to catalog

COSMOS 2187

AliveMilitaryLEO
NORAD 21976·PAYLOAD·🇷🇺 Russia

Launched Jun 3, 1992 from Plesetsk Cosmodrome

Loading…

Next Passes (next 24 hours)

TLE

FreshSource: Space-Track

Epoch: Sep 14, 2026, 16:27 UTC

1 21976U 92030A   26257.68556243  .00000000  00000-0  98116-4 0  9999
2 21976  74.0074 349.0763 0050439 206.1148 321.1960 12.55737766571479

Track COSMOS 2187 in real time with AllMySat

Download on the App Store